Wind_Speed
19 20 21 22 22 22 22 22 22 22 22 22 22 22 23 24 25 26 28 29 30 31 31 32 32 33 34 36 36 37 37 38 39 40 40 40 40 41 41 41 41 42 41 41
20 21 22 22 22 22 21 21 22 22 22 23 23 24 25 25 25 26 28 29 29 30 31 32 33 33 34 35 37 37 37 38 38 39 39 40 39 40 40 40 41 41 41 41
22 22 23 22 21 22 21 20 21 22 22 23 24 24 25 26 26 26 28 29 30 30 31 31 32 33 34 35 36 37 38 38 38 38 39 39 40 40 40 40 41 41 41 41
24 24 25 22 22 21 21 20 20 21 23 24 25 25 25 25 26 27 28 29 29 31 31 31 31 32 33 34 35 37 38 38 38 39 39 39 39 40 40 40 41 41 41 41
25 25 25 24 23 22 22 21 20 21 21 22 23 24 25 26 27 28 28 28 29 29 30 31 31 32 33 34 35 37 37 37 38 39 39 40 39 39 40 40 40 40 40 40
25 25 25 24 24 24 24 22 21 21 21 22 22 23 23 25 26 28 28 28 29 29 29 30 31 31 32 34 35 36 36 36 37 38 39 39 39 39 39 39 39 39 39 40
26 26 25 23 24 25 25 23 22 22 21 21 22 22 23 24 25 26 27 28 28 29 29 29 30 31 31 32 33 35 35 34 34 36 37 37 38 38 37 38 38 38 38 39
26 26 24 24 24 25 26 25 24 23 23 23 23 23 23 24 26 26 27 28 28 29 29 29 29 30 30 31 32 34 35 36 35 34 35 36 36 35 36 37 38 38 38 39
26 24 24 24 25 26 27 26 25 25 24 24 25 25 25 25 26 27 28 29 29 30 30 30 30 30 30 31 32 33 34 35 36 35 34 35 35 35 35 36 37 38 38 39
25 24 25 25 25 26 26 26 26 25 24 25 25 26 26 27 27 28 28 29 30 30 30 30 30 31 31 31 32 33 33 34 34 35 35 35 35 35 35 36 36 36 37 37
25 25 26 26 26 26 26 26 25 25 25 25 26 26 27 27 27 28 28 28 29 29 29 30 31 31 31 31 32 32 32 33 33 33 34 34 34 34 34 34 35 36 36 37
26 26 26 26 26 26 26 25 25 25 25 25 26 27 27 27 27 28 28 28 28 29 29 30 30 30 30 31 31 31 31 31 32 32 33 33 33 33 34 34 35 35 35 35
27 26 26 25 25 25 25 25 25 26 26 26 26 27 27 28 28 28 28 28 28 28 29 29 29 28 29 29 30 31 31 31 31 32 32 32 33 33 33 34 34 34 34 34
27 27 26 25 25 25 25 25 26 26 27 27 27 28 28 28 28 28 28 28 28 29 29 29 29 29 29 29 29 29 30 30 30 30 30 30 31 31 32 32 31 32 32 32
26 26 26 26 26 26 26 26 27 27 28 28 28 29 29 29 29 29 29 29 29 29 29 30 30 30 29 29 29 29 30 29 29 29 29 30 30 30 30 31 30 30 31 31
26 25 26 26 27 27 27 27 28 29 29 29 29 29 29 29 30 30 29 29 29 29 30 30 30 30 30 30 30 30 30 30 30 30 30 31 30 30 30 30 30 29 30 29
25 25 26 26 27 27 28 29 30 30 30 31 30 30 30 30 30 30 30 30 30 30 30 30 30 30 30 30 30 31 31 31 31 31 31 30 30 30 30 30 30 29 29 28
27 27 26 27 27 28 29 30 30 31 30 31 31 31 30 30 30 30 30 29 29 29 29 28 29 29 30 30 30 30 30 30 31 31 30 30 30 30 30 30 29 29 29 28
28 28 28 29 29 29 30 30 30 30 30 30 30 30 29 29 29 29 29 29 28 28 28 28 28 28 29 30 30 30 30 30 30 31 31 31 31 30 30 30 30 29 29 28
28 29 29 30 30 30 30 30 30 30 30 30 29 29 29 28 28 28 28 27 28 27 27 27 27 27 28 28 28 28 29 29 29 29 30 30 30 30 30 29 29 29 29 28
27 28 29 30 30 29 29 29 29 29 29 29 28 27 27 27 26 26 26 26 26 26 26 26 26 26 26 26 26 26 27 27 27 28 28 29 29 29 29 29 29 28 28 27
27 28 29 29 29 29 29 29 28 28 27 27 27 26 26 26 25 25 25 25 25 25 25 26 26 26 26 25 25 25 25 25 26 26 26 27 27 28 28 28 28 27 27 26
28 28 28 28 28 28 28 27 26 26 26 26 26 26 25 25 24 24 24 24 25 25 25 25 25 25 25 25 24 24 24 24 24 24 24 24 25 25 26 27 26 26 26 25
28 28 28 27 27 27 26 26 26 25 25 25 25 24 24 24 23 23 23 23 24 24 24 25 25 25 24 24 24 24 24 24 23 23 23 23 23 24 24 25 25 25 25 25
29 29 28 27 26 25 25 25 25 24 24 23 23 23 23 22 22 23 23 24 24 24 24 24 24 24 24 24 24 24 24 23 23 23 22 23 23 23 24 23 23 24 24 24
30 30 28 27 25 25 25 25 24 23 23 22 22 22 22 22 23 23 24 24 24 24 24 23 23 23 23 23 23 23 23 23 23 23 22 22 23 23 24 24 23 23 23 23
30 29 28 26 25 25 25 24 24 23 22 22 21 22 22 21 22 22 23 23 23 22 22 22 22 22 22 21 21 21 22 22 22 22 22 22 22 22 23 23 24 24 23 23
Wind_Direction
288 283 281 278 278 277 278 277 273 273 270 268 266 262 260 259 257 255 254 255 255 254 254 255 256 255 253 251 251 251 251 252 253 253 254 255 255 256 257 258 259 259 260 261
289 285 283 279 279 278 279 278 274 271 269 267 266 266 262 260 260 258 255 255 257 257 256 256 258 257 255 253 252 252 252 253 254 255 255 255 256 257 259 259 260 260 261 261
289 286 283 281 280 278 282 283 279 273 270 268 265 264 263 261 259 259 257 257 257 258 259 258 258 259 257 255 254 253 253 253 254 255 256 256 256 257 259 260 261 261 261 261
290 289 286 283 280 279 281 284 284 279 274 272 269 266 265 263 261 260 259 258 258 260 260 260 259 259 259 256 255 255 255 255 255 256 256 256 257 257 258 259 261 260 260 260
290 291 288 282 279 279 280 283 284 282 279 276 272 269 267 266 263 262 262 261 261 262 262 262 261 261 260 258 257 256 256 257 257 256 257 257 258 258 259 259 259 260 259 260
288 289 289 282 278 278 279 282 284 283 282 278 274 271 268 267 266 265 266 265 264 264 265 265 264 264 263 260 258 257 257 257 257 257 258 258 258 259 259 259 259 260 261 261
286 287 286 282 280 278 281 284 283 282 282 280 275 273 271 270 269 268 267 268 267 266 267 267 266 265 264 261 259 258 258 258 258 258 259 259 260 259 260 260 260 261 262 262
285 285 284 282 281 280 281 281 281 282 279 278 276 274 272 271 271 270 270 269 269 269 268 267 266 265 264 263 262 260 259 259 259 258 258 258 260 261 261 261 261 261 261 262
284 284 282 282 280 280 279 279 281 282 279 278 278 277 274 273 272 271 270 270 269 269 268 267 267 266 265 264 264 264 263 262 260 259 259 260 261 261 261 261 261 261 262 262
284 284 283 283 282 281 280 280 280 281 280 279 279 279 278 275 274 274 273 272 271 269 267 267 267 266 266 266 265 266 265 264 263 262 260 261 262 262 262 263 263 263 263 263
288 286 284 283 282 280 280 280 279 279 279 279 280 280 279 277 276 276 276 274 272 270 268 267 267 267 266 266 266 266 266 264 264 264 264 262 262 262 262 263 264 264 265 264
286 285 284 283 282 280 280 280 280 279 280 281 280 280 280 279 278 278 277 275 272 270 269 268 268 268 268 268 268 267 266 265 264 264 265 264 263 263 263 264 264 264 265 265
285 283 282 282 281 280 279 279 280 281 282 282 281 281 280 279 279 278 277 275 272 271 270 270 270 270 271 270 269 268 268 266 265 265 266 265 265 265 266 267 267 266 265 264
285 282 280 278 278 279 279 280 281 282 283 284 283 282 280 279 279 278 277 276 273 271 271 270 271 271 272 272 271 270 269 268 267 266 266 266 265 265 266 267 268 268 266 264
285 282 278 276 277 278 279 280 281 282 284 283 282 283 281 279 279 279 278 276 274 272 272 271 270 270 270 271 272 271 269 268 267 266 266 266 266 266 267 267 267 267 266 265
287 285 281 279 277 277 278 279 281 283 284 284 283 282 281 280 279 278 277 276 275 274 273 272 271 270 270 271 272 271 269 267 266 264 265 265 265 266 267 267 267 266 265 264
288 287 285 284 283 281 280 280 281 282 283 283 282 282 280 280 279 278 278 278 277 276 275 274 271 270 270 271 272 271 269 267 266 266 265 264 265 265 266 266 266 265 264 263
285 286 286 286 285 285 285 284 284 284 283 283 282 281 280 279 279 278 278 278 277 276 275 274 273 272 271 271 272 272 270 267 266 266 265 264 264 264 264 264 265 263 262 262
285 286 287 287 287 287 286 286 286 285 283 283 282 281 280 279 279 278 278 277 276 276 276 276 275 274 273 274 274 273 271 269 266 265 264 263 263 263 263 263 263 261 261 261
288 288 289 289 289 288 287 287 286 285 283 282 281 280 280 280 280 278 277 276 276 276 277 277 277 276 275 275 274 273 272 270 268 266 264 263 263 262 261 260 260 259 259 259
292 291 290 290 290 289 289 288 287 286 283 281 281 280 280 280 279 278 277 276 277 277 278 278 279 279 278 276 274 273 273 272 270 268 265 263 262 260 259 257 257 256 256 258
295 294 293 292 289 289 289 289 288 286 284 282 281 280 280 280 280 279 277 277 278 278 279 280 280 280 279 278 276 275 274 273 272 270 267 263 261 259 257 255 255 255 256 257
297 297 296 294 292 291 290 289 289 287 285 284 282 280 280 279 278 278 278 279 280 280 280 281 281 281 280 278 277 275 274 274 273 272 268 263 260 258 255 253 254 254 254 255
297 298 297 295 294 292 291 290 289 289 288 285 283 280 279 279 278 279 280 280 281 281 281 281 281 282 281 278 277 275 274 273 272 271 268 264 261 259 256 254 254 253 252 252
296 297 296 294 293 292 292 292 292 291 289 286 283 281 280 279 279 279 281 282 283 283 282 281 280 281 280 279 277 275 273 271 270 269 267 264 262 259 256 254 253 252 251 250
294 295 294 292 291 291 292 293 292 292 290 287 284 283 282 281 280 281 282 283 284 283 282 281 280 280 280 280 279 276 274 271 269 268 267 265 263 259 256 254 252 252 251 249
293 293 292 290 290 290 291 291 291 291 290 288 286 285 284 283 283 282 283 284 283 282 282 281 280 279 280 281 281 279 277 274 270 269 267 264 262 259 256 254 252 250 249 248
Height
5622 5621 5620 5620 5620 5619 5618 5617 5618 5618 5618 5619 5618 5618 5619 5620 5621 5622 5623 5624 5625 5626 5627 5629 5630 5631 5632 5634 5636 5638 5640 5643 5645 5647 5649 5651 5653 5654 5656 5658 5660 5661 5663 5664
5618 5617 5616 5615 5615 5614 5613 5612 5612 5612 5613 5612 5612 5612 5613 5613 5614 5615 5616 5617 5618 5619 5620 5621 5622 5623 5624 5625 5627 5629 5631 5633 5635 5637 5639 5641 5643 5644 5646 5648 5649 5651 5652 5653
5613 5612 5610 5610 5611 5609 5608 5607 5607 5606 5607 5606 5606 5606 5606 5607 5608 5608 5609 5610 5611 5611 5612 5613 5614 5615 5615 5617 5618 5620 5622 5624 5626 5628 5629 5631 5633 5634 5636 5638 5639 5641 5642 5643
5606 5606 5605 5608 5604 5604 5603 5602 5601 5600 5600 5600 5600 5600 5600 5600 5601 5602 5602 5603 5603 5604 5604 5605 5605 5606 5607 5608 5609 5611 5612 5614 5616 5617 5619 5621 5623 5624 5626 5628 5629 5630 5631 5633
5600 5599 5599 5601 5600 5598 5597 5598 5597 5595 5594 5594 5593 5593 5594 5593 5594 5594 5595 5595 5595 5596 5596 5596 5597 5597 5598 5599 5600 5602 5603 5605 5606 5608 5609 5611 5613 5614 5615 5617 5618 5619 5620 5622
5595 5593 5593 5596 5594 5591 5591 5592 5591 5589 5588 5587 5587 5587 5588 5586 5587 5587 5587 5587 5587 5588 5588 5588 5588 5589 5589 5590 5591 5592 5594 5595 5596 5598 5599 5601 5602 5603 5605 5606 5607 5608 5609 5611
5589 5586 5587 5588 5587 5586 5586 5587 5585 5583 5582 5581 5581 5581 5581 5580 5579 5579 5579 5579 5579 5579 5579 5579 5579 5580 5580 5581 5582 5583 5584 5585 5586 5588 5589 5590 5592 5593 5594 5595 5596 5598 5599 5600
5582 5581 5584 5581 5580 5580 5580 5578 5577 5576 5576 5575 5574 5574 5573 5573 5572 5572 5572 5571 5571 5571 5571 5571 5571 5571 5572 5572 5573 5574 5575 5576 5576 5578 5579 5580 5581 5582 5583 5584 5585 5587 5588 5589
5578 5579 5577 5575 5574 5573 5572 5571 5570 5569 5569 5568 5567 5567 5566 5566 5565 5564 5564 5564 5563 5563 5563 5563 5563 5563 5563 5563 5564 5565 5565 5566 5566 5567 5569 5570 5571 5572 5573 5573 5575 5576 5577 5578
5571 5571 5570 5568 5567 5566 5565 5564 5563 5562 5562 5561 5560 5559 5559 5558 5557 5557 5556 5555 5555 5555 5554 5554 5554 5554 5554 5555 5555 5555 5556 5556 5557 5558 5559 5560 5561 5561 5562 5563 5564 5565 5566 5567
5564 5564 5563 5562 5560 5559 5558 5557 5556 5555 5554 5553 5553 5552 5551 5550 5549 5548 5548 5547 5546 5546 5546 5546 5546 5546 5546 5546 5546 5546 5546 5547 5547 5548 5548 5550 5551 5551 5552 5553 5553 5555 5555 5556
5558 5557 5555 5555 5553 5552 5550 5550 5549 5548 5547 5546 5545 5544 5543 5542 5541 5540 5539 5538 5538 5537 5537 5537 5537 5537 5537 5537 5537 5537 5537 5537 5538 5538 5539 5540 5541 5542 5542 5543 5543 5544 5545 5546
5551 5549 5547 5547 5545 5544 5543 5542 5541 5541 5540 5539 5538 5537 5535 5534 5533 5532 5531 5530 5529 5529 5529 5528 5528 5528 5528 5528 5527 5527 5527 5528 5528 5529 5529 5530 5531 5532 5533 5533 5534 5534 5535 5535
5542 5541 5540 5539 5538 5537 5536 5535 5534 5533 5532 5531 5530 5529 5527 5526 5525 5524 5523 5522 5521 5521 5520 5520 5519 5519 5519 5519 5519 5518 5518 5518 5519 5519 5520 5521 5521 5522 5523 5524 5524 5524 5525 5526
5535 5533 5532 5531 5530 5529 5529 5528 5527 5526 5524 5523 5522 5520 5519 5518 5517 5516 5515 5513 5513 5512 5511 5511 5511 5510 5510 5510 5510 5509 5509 5509 5510 5510 5511 5511 5512 5513 5514 5514 5515 5516 5516 5516
5527 5525 5524 5523 5522 5521 5520 5520 5519 5518 5516 5515 5513 5512 5511 5509 5508 5507 5506 5505 5504 5503 5502 5502 5501 5501 5501 5501 5501 5500 5500 5500 5500 5501 5502 5502 5503 5504 5505 5505 5506 5507 5507 5508
5519 5518 5517 5516 5515 5513 5512 5511 5510 5509 5507 5506 5504 5503 5501 5500 5499 5498 5497 5496 5495 5494 5493 5492 5492 5492 5492 5491 5491 5491 5490 5490 5491 5491 5492 5493 5494 5494 5495 5496 5497 5498 5498 5499
5511 5510 5509 5508 5507 5505 5504 5502 5501 5499 5498 5497 5495 5494 5492 5491 5490 5488 5487 5486 5485 5484 5484 5483 5483 5482 5482 5482 5481 5481 5481 5481 5481 5482 5482 5483 5484 5485 5486 5487 5488 5489 5490 5490
5503 5502 5501 5500 5498 5497 5495 5493 5492 5490 5489 5487 5486 5484 5483 5482 5480 5479 5478 5477 5476 5475 5475 5474 5473 5473 5473 5472 5472 5471 5471 5471 5472 5472 5473 5474 5474 5475 5476 5477 5478 5479 5481 5482
5496 5494 5493 5491 5489 5488 5486 5484 5482 5481 5479 5478 5476 5475 5474 5472 5471 5470 5469 5468 5467 5467 5466 5465 5465 5464 5463 5463 5462 5462 5462 5462 5462 5462 5463 5464 5464 5465 5467 5468 5469 5470 5471 5473
5488 5486 5484 5482 5480 5479 5477 5475 5473 5471 5470 5468 5467 5466 5465 5463 5462 5461 5460 5460 5459 5458 5458 5457 5456 5455 5455 5454 5453 5453 5453 5453 5452 5453 5453 5454 5455 5456 5457 5458 5460 5461 5462 5464
5480 5477 5475 5473 5471 5469 5468 5466 5464 5462 5461 5459 5458 5457 5456 5455 5454 5453 5452 5452 5451 5450 5449 5449 5448 5447 5446 5445 5445 5444 5444 5444 5444 5444 5444 5444 5445 5446 5448 5449 5451 5452 5454 5455
5472 5469 5467 5465 5463 5461 5459 5457 5455 5454 5452 5451 5450 5449 5448 5447 5446 5445 5444 5444 5443 5442 5441 5440 5439 5438 5438 5437 5436 5436 5436 5435 5435 5435 5435 5436 5436 5437 5439 5440 5442 5443 5445 5446
5464 5462 5459 5457 5454 5453 5451 5449 5447 5446 5444 5443 5441 5440 5439 5439 5438 5437 5436 5436 5435 5434 5433 5432 5431 5430 5429 5429 5428 5428 5427 5427 5427 5427 5427 5427 5428 5429 5430 5432 5433 5435 5437 5438
5456 5454 5451 5449 5447 5445 5443 5441 5440 5438 5436 5435 5433 5432 5431 5431 5430 5430 5429 5428 5427 5426 5425 5424 5423 5422 5421 5420 5420 5419 5419 5419 5419 5419 5419 5420 5420 5421 5422 5424 5425 5427 5428 5430
5448 5445 5443 5441 5439 5438 5436 5434 5432 5430 5429 5427 5426 5425 5424 5423 5422 5421 5421 5419 5418 5417 5416 5416 5415 5414 5413 5412 5411 5411 5410 5410 5410 5411 5411 5412 5412 5413 5414 5416 5417 5419 5420 5422
5439 5437 5435 5433 5432 5430 5429 5427 5425 5423 5422 5420 5419 5418 5416 5415 5414 5413 5413 5412 5411 5410 5409 5408 5407 5406 5405 5405 5404 5403 5403 5402 5402 5403 5403 5404 5404 5405 5406 5408 5409 5411 5413 5414